Date String (YYYY-MM-DD hh:mm:ss) UTC,Instrument flags,Ambient pressure (hPa),Sample flow (lpm),Bypass flow (lpm),Sample temperature (°C),Ambient temperature (°C),ASC tube jacket temperature (°C),LED temperature (°C),Box temperature (°C),Sample RH (%),Span deviation,Mass concentration (μg/m³),Mass concentration (μg/m³),Mass concentration (μg/m³)
DateTimeUTC,F1_M11,P_M11,Q1_M11,Q2_M11,T1_M11,T2_M11,T3_M11,T4_M11,T5_M11,U1_M11,ZSPAN_M11,X0_M11,X2_M11,X1_M11
2021-12-13 15:00:00,,0825.3,4.99,0.00,22.2,21.5,00.0,31.3,23.9,06.9,0000.0,0007.78,0001.66,0000.86
2021-12-13 15:01:00,,0825.3,4.99,0.00,22.2,21.5,00.0,31.3,23.9,06.9,0000.0,0007.77,0001.68,0000.86
2021-12-13 15:02:00,,0825.2,5.02,0.00,22.2,21.5,00.0,31.3,23.9,06.9,0000.0,0007.91,0001.72,0000.86
2021-12-13 15:03:00,,0825.2,4.98,0.00,22.2,21.5,00.0,31.3,23.9,06.9,0000.0,0007.95,0001.69,0000.87
2021-12-13 15:04:00,,0825.3,5.00,0.00,22.2,21.6,00.0,31.3,23.9,06.9,0000.0,0007.86,0001.63,0000.87
2021-12-13 15:05:00,,0825.3,5.01,0.00,22.2,21.6,00.0,31.3,24.0,06.9,0000.0,0007.83,0001.62,0000.87
2021-12-13 15:06:00,,0825.4,4.99,0.00,22.2,21.6,00.0,31.3,24.0,06.9,0000.0,0008.33,0001.60,0000.86
2021-12-13 15:07:00,,0825.3,5.01,0.00,22.3,21.6,00.0,31.3,24.0,06.9,0000.0,0008.01,0001.58,0000.85
2021-12-13 15:08:00,,0825.3,5.00,0.00,22.3,21.6,00.0,31.3,24.0,06.9,0000.0,0007.97,0001.53,0000.83
2021-12-13 15:09:00,,0825.2,4.99,0.00,22.3,21.7,00.0,31.3,24.1,06.9,0000.0,0007.84,0001.49,0000.84
2021-12-13 15:10:00,,0825.2,5.00,0.00,22.3,21.7,00.0,31.3,24.1,06.9,0000.0,0006.29,0001.46,0000.84
2021-12-13 15:11:00,,0825.3,5.01,0.00,22.3,21.7,00.0,31.3,24.1,06.9,0000.0,0005.51,0001.40,0000.85
2021-12-13 15:12:00,,0825.3,5.00,0.00,22.4,21.8,00.0,31.3,24.1,06.9,0000.0,0005.40,0001.42,0000.86
2021-12-13 15:13:00,,0825.2,5.01,0.00,22.4,21.8,00.0,31.3,24.2,06.9,0000.0,0005.14,0001.40,0000.87
2021-12-13 15:14:00,,0825.2,4.99,0.00,22.4,21.8,00.0,31.3,24.2,07.0,0000.0,0005.18,0001.39,0000.86
2021-12-13 15:15:00,,0825.3,5.01,0.00,22.4,21.8,00.0,31.3,24.2,06.9,0000.0,0004.57,0001.41,0000.86
2021-12-13 15:16:00,,0825.2,4.99,0.00,22.4,21.9,00.0,31.3,24.2,07.0,0000.0,0004.47,0001.37,0000.85
2021-12-13 15:17:00,,0825.2,5.01,0.00,22.4,21.9,00.0,31.3,24.3,06.9,0000.0,0003.48,0001.35,0000.85
2021-12-13 15:18:00,,0825.3,5.01,0.00,22.4,21.9,00.0,31.3,24.2,07.0,0000.0,0002.59,0001.29,0000.85
2021-12-13 15:19:00,,0825.3,5.01,0.00,22.5,21.9,00.0,31.3,24.3,07.0,0000.0,0003.85,0001.32,0000.85
2021-12-13 15:20:00,,0825.4,4.98,0.00,22.5,21.9,00.0,31.4,24.3,07.0,0000.0,0004.55,0001.40,0000.86
2021-12-13 15:21:00,,0825.4,5.01,0.00,22.5,21.9,00.0,31.4,24.3,07.0,0000.0,0004.74,0001.42,0000.86
2021-12-13 15:22:00,,0825.5,4.99,0.00,22.5,22.0,00.0,31.4,24.3,07.0,0000.0,0005.43,0001.53,0000.86
2021-12-13 15:23:00,,0825.4,5.00,0.00,22.5,22.0,00.0,31.4,24.3,07.1,0000.0,0005.60,0001.51,0000.87
2021-12-13 15:24:00,,0825.4,5.00,0.00,22.5,22.0,00.0,31.4,24.3,07.1,0000.0,0005.86,0001.56,0000.88
2021-12-13 15:25:00,,0825.4,5.00,0.00,22.5,22.0,00.0,31.4,24.3,07.2,0000.0,0006.25,0001.66,0000.90
2021-12-13 15:26:00,,0825.4,4.99,0.00,22.5,22.0,00.0,31.4,24.3,07.2,0000.0,0006.26,0001.72,0000.92
2021-12-13 15:27:00,,0825.4,5.01,0.00,22.6,22.0,00.0,31.4,24.3,07.2,0000.0,0006.53,0001.80,0000.94
2021-12-13 15:28:00,,0825.3,4.99,0.00,22.6,22.0,00.0,31.4,24.3,07.2,0000.0,0006.79,0001.89,0000.97
2021-12-13 15:29:00,,0825.4,5.00,0.00,22.6,21.9,00.0,31.5,24.3,07.2,0000.0,0006.99,0001.94,0000.99
2021-12-13 15:30:00,,0825.4,5.01,0.00,22.6,22.0,00.0,31.5,24.3,07.3,0000.0,0006.34,0002.01,0001.00
2021-12-13 15:31:00,,0825.4,4.98,0.00,22.6,21.9,00.0,31.5,24.3,07.3,0000.0,0005.92,0002.07,0001.02
2021-12-13 15:32:00,,0825.4,5.02,0.00,22.6,22.0,00.0,31.5,24.4,07.4,0000.0,0007.38,0002.13,0001.04
2021-12-13 15:33:00,,0825.4,4.99,0.00,22.6,22.0,00.0,31.5,24.4,07.4,0000.0,0007.14,0002.15,0001.05
2021-12-13 15:34:00,,0825.5,5.01,0.00,22.6,22.0,00.0,31.5,24.3,07.4,0000.0,0006.93,0002.14,0001.07
2021-12-13 15:35:00,,0825.5,5.00,0.00,22.6,22.0,00.0,31.5,24.3,07.3,0000.0,0006.85,0002.16,0001.10
2021-12-13 15:36:00,,0825.5,5.00,0.00,22.6,22.0,00.0,31.5,24.3,07.3,0000.0,0006.54,0002.17,0001.11
2021-12-13 15:37:00,,0825.4,5.00,0.00,22.6,22.0,00.0,31.5,24.3,07.3,0000.0,0006.45,0002.16,0001.13
2021-12-13 15:38:00,,0825.4,5.00,0.00,22.6,22.0,00.0,31.5,24.4,07.3,0000.0,0006.96,0002.17,0001.14
2021-12-13 15:39:00,,0825.5,5.01,0.00,22.6,22.0,00.0,31.5,24.3,07.3,0000.0,0007.03,0002.19,0001.17
2021-12-13 15:40:00,,0825.4,5.00,0.00,22.6,22.0,00.0,31.5,24.4,07.3,0000.0,0007.92,0002.26,0001.20
2021-12-13 15:41:00,,0825.4,5.00,0.00,22.6,22.0,00.0,31.5,24.4,07.3,0000.0,0008.02,0002.32,0001.23
2021-12-13 15:42:00,,0825.5,5.00,0.00,22.6,22.0,00.0,31.6,24.4,07.4,0000.0,0007.88,0002.30,0001.27
2021-12-13 15:43:00,,0825.5,5.01,0.00,22.6,22.0,00.0,31.6,24.4,07.4,0000.0,0006.70,0002.29,0001.31
2021-12-13 15:44:00,,0825.5,4.98,0.00,22.7,22.0,00.0,31.6,24.4,07.5,0000.0,0006.34,0002.26,0001.35
2021-12-13 15:45:00,,0825.4,5.01,0.00,22.6,22.0,00.0,31.6,24.4,07.4,0000.0,0006.74,0002.31,0001.39
2021-12-13 15:46:00,,0825.4,4.99,0.00,22.6,22.0,00.0,31.6,24.4,07.4,0000.0,0007.08,0002.35,0001.42
2021-12-13 15:47:00,,0825.4,5.01,0.00,22.7,22.0,00.0,31.6,24.4,07.5,0000.0,0007.37,0002.38,0001.47
2021-12-13 15:48:00,,0825.4,4.99,0.00,22.7,22.0,00.0,31.6,24.4,07.5,0000.0,0007.37,0002.39,0001.51
2021-12-13 15:49:00,,0825.5,5.02,0.00,22.7,22.1,00.0,31.6,24.5,07.5,0000.0,0006.99,0002.44,0001.57
2021-12-13 15:50:00,,0825.5,4.98,0.00,22.7,22.1,00.0,31.6,24.5,07.5,0000.0,0007.06,0002.49,0001.61
2021-12-13 15:51:00,,0825.6,5.00,0.00,22.8,22.1,00.0,31.6,24.6,07.4,0000.0,0006.33,0002.50,0001.64
2021-12-13 15:52:00,,0825.6,5.00,0.00,22.8,22.1,00.0,31.7,24.6,07.5,0000.0,0006.76,0002.48,0001.67
2021-12-13 15:53:00,,0825.5,5.01,0.00,22.8,22.1,00.0,31.7,24.6,07.5,0000.0,0007.19,0002.56,0001.70
2021-12-13 15:54:00,,0825.5,5.00,0.00,22.8,22.1,00.0,31.7,24.6,07.6,0000.0,0007.82,0002.56,0001.73
2021-12-13 15:55:00,,0825.5,5.00,0.00,22.8,22.2,00.0,31.7,24.6,07.7,0000.0,0008.19,0002.65,0001.78
2021-12-13 15:56:00,,0825.5,5.00,0.00,22.8,22.2,00.0,31.7,24.6,07.7,0000.0,0008.54,0002.74,0001.83
2021-12-13 15:57:00,,0825.6,5.00,0.00,22.8,22.2,00.0,31.7,24.7,07.8,0000.0,0008.58,0002.80,0001.88
2021-12-13 15:58:00,,0825.5,5.01,0.00,22.8,22.2,00.0,31.7,24.6,07.9,0000.0,0008.57,0003.00,0001.96
2021-12-13 15:59:00,,0825.6,4.99,0.00,22.8,22.2,00.0,31.7,24.6,07.9,0000.0,0008.75,0003.13,0002.03
